Weather Roundup
Issued by NWS

Home | Current Version | Previous Version | Text Only | Print | Product List | Glossary On
Versions: 1 2 3 4 5 6 7 8 9 10 11 12 13 14 15 16 17 18 19 20 21 22 23 24 25 26 27 28 29 30 31 32 33 34 35 36 37 38 39 40 41 42 43 44 45 46 47 48 49 50
160
NZUS93 KARX 251510
HRRWXR

CURRENT HOURLY OBSERVATIONS ACROSS
MUCH OF THE UPPER MISSISSIPPI VALLEY
NATIONAL WEATHER SERVICE LA CROSSE WI
1000 AM CDT WED MAY 25 2016


...SOUTHEAST MINNESOTA...


CITY           SKY/WX    TMP DP  RH WIND       PRES   REMARKS
ROCHESTER      PTSUNNY   68  66  93 E6        29.91F
ROCHESTER/MAYO CLOUDY    67  67 100 E3        29.92F
WINONA         CLOUDY    70  59  68 SE5       29.94S
AUSTIN         CLOUDY    66  63  88 CALM      29.88F
ALBERT LEA     CLOUDY    66  64  94 E10       29.86F FOG
DODGE CENTER   PTSUNNY   66  64  94 E7        29.91F FOG
PRESTON        CLOUDY    66  63  89 E7        29.92F
OWATONNA       RAIN      66  63  88 E5        29.89F
FARIBAULT      CLOUDY    66  63  88 SE5       29.90F
$$

...ELSEWHERE IN MINNESOTA...


CITY           SKY/WX    TMP DP  RH WIND       PRES   REMARKS
MINNEAPOLIS    CLOUDY    67  63  87 SE8       29.90S THUNDER
INTNL FALLS    NOT AVBL
DULUTH         NOT AVBL
RED WING       CLOUDY    70  61  73 SE5       29.91  THUNDER
REDWOOD FALLS  CLOUDY    64  60  87 E10       29.81F
MANKATO        CLOUDY    66  63  88 NE6       29.87F
WORTHINGTON    NOT AVBL
FAIRMONT       CLOUDY    66  59  77 SE5       29.84F
$$

...SOUTHWEST WISCONSIN...


CITY           SKY/WX    TMP DP  RH WIND       PRES   REMARKS
LA CROSSE      CLOUDY    73  61  65 S9        29.95R
PRAIRIE DU CHI CLOUDY    69  62  78 CALM      29.95F
BOSCOBEL       CLOUDY    73  64  73 CALM      29.96S
LONE ROCK      CLOUDY    73  63  70 CALM      29.97S
PLATTEVILLE    CLOUDY    75  65  69 SE12      29.97F
FORT MC COY    CLOUDY    76  60  56 SE12      29.95S
CAMP DOUGLAS   CLOUDY    75  70  83 E13       29.95F
MAUSTON-NEW LI PTSUNNY   76  62  62 SE8       29.95F
VIROQUA        PTSUNNY   70  62  76 S6        29.98R
WIS DELLS      CLOUDY    76  60  57 SE8       29.97S
$$

...ELSEWHERE IN WISCONSIN...


CITY           SKY/WX    TMP DP  RH WIND       PRES   REMARKS
MILWAUKEE      CLOUDY    59  52  77 N12       30.02R
MADISON        CLOUDY    75  65  70 S8        29.98S
GREEN BAY      CLOUDY    60  56  86 NE10      30.04F
EAU CLAIRE     MOSUNNY   75  59  57 SE12      29.93F
BLACK RVR FLS  FAIR      76  57  51 E8        29.95S
MEDFORD        MOSUNNY   67  62  83 E8        30.01S
WAUSAU         CLOUDY    65  58  78 E12       30.01F
WIS RAPIDS     CLOUDY    70  57  63 E13       30.00F
MARSHFIELD     CLOUDY    72  60  66 E13       29.98F
RICE LAKE      MOSUNNY   73  57  57 E13       29.96F
$$

...NORTHEAST IOWA...


CITY           SKY/WX    TMP DP  RH WIND       PRES   REMARKS
WATERLOO       CLOUDY    66  63  90 SE12      29.88R
DUBUQUE        CLOUDY    73  62  68 SE10      29.96F
DECORAH        CLOUDY    68  64  88 VRB6      29.93F
MASON CITY     CLOUDY    67  66  97 E12       29.86F FOG
CHARLES CITY   PTSUNNY   66  66 100 NE6       29.87F
OELWEIN        CLOUDY    68  66  94 SE16      29.89F
$$

...ELSEWHERE IN IOWA...


CITY           SKY/WX    TMP DP  RH WIND       PRES   REMARKS
DES MOINES     CLOUDY    68  64  87 S7        29.90F
IOWA CITY      CLOUDY    71  65  81 SE10      29.93F
FORT DODGE     CLOUDY    66  61  82 S9        29.88F
MARSHALLTOWN   PTSUNNY   67  64  90 S10       29.89F
CEDAR RAPIDS   CLOUDY    70  65  84 SE7       29.92F
$$

...NORTHERN ILLINOIS...


CITY           SKY/WX    TMP DP  RH WIND       PRES   REMARKS
CHICAGO-OHARE  CLOUDY    77  65  66 S12       30.00F
CHICAGO-MIDWAY MOSUNNY   77  62  59 S10       30.01F
MOLINE         MOSUNNY   76  62  62 SE9G17    29.94F
ROCKFORD       CLOUDY    79  66  64 S10       29.99S
PEORIA         CLOUDY    73  63  70 S12       29.98F
$$

NOTE: "FAIR" INDICATES FEW OR NO CLOUDS BELOW 12,000 FEET WITH NO
SIGNIFICANT WEATHER AND/OR OBSTRUCTIONS TO VISIBILITY. WIND
SPEEDS ARE IN MILES-PER-HOUR.




USA.gov is the U.S. government's official web portal to all federal, state and local government web resources and services.